Temperature
14 14 14 14 14 14 14 14 14 14 14 14 15 15 15 15 15 15 15 15 15 15 15 15 15 16 16 16 16 16 16 16 16 16 16 16 16 16
14 14 14 14 14 14 14 14 14 14 14 14 14 14 14 14 15 15 15 15 15 15 15 15 15 15 15 15 15 16 16 16 16 16 16 16 16 16
14 14 14 14 14 14 14 14 14 14 14 14 14 14 14 14 14 14 14 14 14 14 15 15 15 15 15 15 15 15 15 15 15 15 16 15 16 16
13 13 13 13 13 13 14 14 14 13 14 14 14 14 14 14 14 14 14 14 14 14 14 14 14 14 15 15 15 15 15 15 15 15 15 15 15 15
13 13 13 13 13 13 13 13 13 13 13 13 13 14 14 14 14 14 14 14 14 14 14 14 14 14 14 14 14 14 14 15 15 15 15 15 15 15
13 13 13 13 13 13 13 13 13 13 13 13 13 13 13 13 13 13 13 13 13 13 13 14 14 14 14 14 14 14 14 14 14 14 15 15 15 15
12 12 12 12 12 12 12 13 13 13 13 13 13 13 13 13 13 13 13 13 13 13 13 13 13 13 13 14 14 14 14 14 14 14 14 14 14 14
12 12 12 12 12 12 12 12 12 12 12 13 13 13 13 13 13 13 13 13 13 13 13 13 13 13 13 13 13 13 13 13 13 13 14 14 14 14
12 12 12 12 12 12 12 12 12 12 12 12 12 12 13 13 13 13 13 13 13 13 13 13 13 13 13 13 13 13 13 13 13 13 13 13 13 13
11 11 11 11 11 11 11 11 12 12 12 12 12 12 12 13 13 12 12 12 12 13 12 12 12 12 12 12 12 12 12 13 13 13 13 13 13 13
11 11 11 11 11 11 11 11 11 11 12 12 12 12 12 12 12 12 12 12 12 12 12 12 12 12 12 12 12 12 12 12 12 12 12 12 12 12
10 10 10 10 10 10 10 10 11 11 11 11 11 11 12 12 12 12 12 12 12 12 12 12 12 12 12 12 12 12 12 12 12 12 12 12 12 12
10 10 10 10 10 10 10 10 10 10 11 11 11 11 11 11 12 12 12 12 12 12 12 12 12 12 11 11 11 11 11 11 11 11 11 11 11 11
9 9 9 9 9 9 9 10 10 10 10 10 10 11 11 11 11 11 11 11 11 12 12 12 11 11 11 11 11 11 11 11 11 11 11 11 11 11
9 9 9 9 9 9 9 9 9 9 9 9 10 10 10 11 11 11 11 11 11 11 11 11 11 11 11 11 11 11 11 11 10 10 10 10 10 10
8 8 8 8 8 9 9 9 9 9 9 9 9 9 10 10 10 10 11 11 11 11 11 11 11 11 11 11 11 11 10 10 10 10 10 10 10 10
7 8 8 8 8 8 8 8 8 8 8 8 9 9 9 9 10 10 10 10 10 10 11 10 10 10 10 10 10 10 10 10 10 10 10 10 9 9
7 7 7 7 7 7 7 8 8 8 8 8 8 8 8 9 9 9 10 10 10 10 10 10 10 10 10 9 10 10 10 10 10 9 9 9 9 9
6 6 6 6 7 7 7 7 7 7 7 7 7 8 8 8 8 9 9 9 10 10 10 10 10 10 9 9 9 9 9 9 9 9 9 8 8 8
6 6 6 6 6 6 6 6 6 7 7 7 7 7 7 7 8 8 9 9 9 9 10 10 10 10 10 9 9 9 9 9 9 8 8 8 8 8
5 5 5 5 5 6 6 6 6 6 6 6 7 7 7 7 7 8 8 8 9 9 9 9 10 9 9 9 9 8 8 8 8 8 8 8 7 7
5 5 5 5 5 5 5 5 6 6 6 6 6 7 7 7 7 7 8 8 8 9 9 9 9 9 8 8 8 8 8 8 7 7 7 7 7 7
4 4 4 4 4 4 5 5 5 5 5 6 6 6 6 7 7 7 7 7 8 8 8 8 8 8 8 8 8 8 7 7 7 7 6 6 6 6
Wind_Speed
2 2 1 2 2 1 2 3 3 1 2 3 2 2 1 2 4 4 4 6 7 7 6 7 7 7 7 8 8 8 9 9 10 11 12 12 12 12
2 2 2 2 2 1 1 2 3 4 3 3 2 2 2 2 3 3 5 6 7 7 7 7 7 7 7 7 8 8 8 8 8 9 10 11 11 11
3 3 4 3 2 2 1 1 2 3 3 3 2 2 1 2 2 2 3 3 4 7 8 8 8 8 8 8 8 8 8 8 7 8 9 9 10 11
4 3 4 3 3 2 2 2 2 3 4 4 3 2 2 3 3 3 2 3 3 5 7 8 8 8 8 8 8 9 9 8 7 7 8 8 9 9
4 3 4 3 4 3 3 3 3 3 3 3 3 2 2 2 2 2 2 1 3 4 5 7 8 8 8 8 9 9 9 8 8 8 8 8 8 8
4 4 4 4 4 4 3 3 3 3 2 3 3 3 2 2 2 2 2 1 2 2 2 3 5 7 8 8 9 9 9 9 8 8 8 8 8 8
5 5 5 6 6 4 4 4 3 3 3 3 3 2 3 2 3 3 3 2 2 2 2 2 2 3 4 7 8 9 9 9 9 8 8 7 7 7
6 6 6 6 7 7 7 6 5 5 5 4 4 5 5 4 4 4 3 3 3 3 3 3 3 3 3 5 7 9 9 9 9 8 8 8 7 7
5 5 6 6 6 4 6 6 6 7 8 6 6 7 6 6 5 5 5 5 5 4 3 3 2 4 3 5 8 9 9 9 9 9 8 8 7 6
5 5 5 6 6 5 5 5 5 6 7 7 7 8 8 6 6 7 6 4 2 2 4 3 3 3 3 3 7 9 9 9 9 9 8 7 7 6
6 5 5 6 9 8 4 5 7 7 7 8 9 9 10 9 7 4 4 4 3 3 3 4 3 2 1 2 4 7 8 8 7 7 7 7 6 6
6 6 8 8 10 10 5 5 8 8 6 6 6 7 7 7 9 7 7 6 4 4 4 4 4 3 1 1 1 3 4 5 5 5 5 6 6 4
6 6 6 12 12 11 9 7 10 9 6 6 5 5 5 5 6 6 6 7 6 5 5 5 4 3 3 2 1 1 2 2 2 2 2 4 6 6
7 7 8 13 13 12 9 10 13 9 4 4 5 6 6 6 6 6 7 7 7 7 7 7 5 5 5 3 2 1 1 2 2 2 1 2 3 4
7 12 13 14 13 10 11 13 10 6 5 5 7 7 7 7 5 4 5 4 4 4 5 6 6 5 5 5 4 3 2 2 2 3 2 2 2 1
7 10 14 13 9 9 9 8 6 6 6 7 7 6 4 4 5 5 5 4 3 3 2 4 7 7 5 5 5 4 4 4 3 3 3 2 1 2
8 5 5 5 5 6 5 6 6 5 6 6 6 5 5 5 5 5 5 5 5 5 4 2 2 3 5 6 5 5 4 3 3 3 3 2 2 2
9 6 6 7 7 7 7 6 6 6 6 6 6 6 6 6 5 4 5 6 7 7 6 5 5 3 1 1 3 5 4 4 3 4 3 3 2 2
6 6 7 8 8 7 7 7 7 7 6 6 7 7 7 6 5 6 6 6 7 7 6 6 6 7 6 5 2 3 5 4 4 3 3 3 3 3
5 7 8 8 8 8 8 7 7 7 6 6 7 7 7 6 6 6 7 7 7 6 6 6 7 8 9 8 5 2 4 5 5 4 2 1 0 1
7 8 8 8 8 8 8 8 7 8 7 7 7 7 7 7 7 8 7 9 8 7 9 9 8 8 5 6 4 2 1 2 6 5 4 2 1 0
9 9 9 8 8 8 8 8 8 8 8 8 8 7 7 7 8 9 8 8 7 7 8 6 6 7 5 6 6 5 3 2 2 4 5 6 4 5
9 9 9 8 8 8 8 9 10 9 8 8 8 7 7 7 7 7 8 8 7 7 7 7 6 5 5 6 6 5 5 4 2 2 1 1 2 4
Wind_Direction
277 283 279 279 273 238 196 178 177 235 286 281 281 272 230 218 229 218 220 221 209 207 210 208 207 206 210 211 206 203 203 202 203 204 204 208 210 211
285 293 287 279 284 274 226 199 184 188 235 265 257 264 243 220 229 219 225 224 216 207 207 207 206 206 209 208 201 198 198 200 198 198 203 205 205 208
317 302 285 281 281 281 257 222 205 185 221 266 263 270 244 228 227 220 222 217 219 214 208 209 210 212 208 203 199 196 195 198 200 201 201 202 205 207
301 301 296 300 284 271 256 251 237 214 204 246 272 267 247 225 212 212 207 210 212 219 211 212 211 211 209 204 200 195 194 196 198 202 205 207 207 207
289 283 281 288 287 274 260 255 252 239 209 217 252 255 258 236 207 214 204 210 213 217 213 213 209 205 205 202 199 196 195 195 198 203 210 214 212 209
286 274 275 261 256 265 264 259 252 240 225 218 241 253 254 248 185 205 225 228 228 214 209 208 207 206 205 204 201 197 196 198 201 203 205 207 207 209
301 286 278 276 269 261 261 248 235 230 227 224 235 247 248 225 216 210 210 219 240 217 208 218 192 196 202 207 207 202 198 198 200 201 199 198 200 204
307 300 291 284 288 288 280 265 234 222 224 225 230 229 237 229 223 210 200 200 237 219 189 220 189 208 213 203 205 201 197 195 195 197 197 197 200 202
298 298 304 306 303 291 293 291 267 247 225 215 226 229 229 223 210 212 209 204 219 208 172 214 201 210 223 212 201 199 198 197 195 194 196 197 198 199
290 279 280 289 296 293 287 288 278 269 252 237 230 235 232 223 212 213 211 208 229 215 173 199 204 207 207 213 206 199 197 197 196 195 195 197 200 200
290 282 278 277 289 292 278 273 280 282 273 256 245 246 246 231 209 190 188 188 221 228 198 183 192 187 194 217 213 202 198 194 193 196 196 196 195 191
298 286 283 283 292 289 267 260 264 269 276 276 268 265 253 239 216 204 200 198 199 218 204 177 178 160 187 241 198 185 184 187 181 184 192 192 183 163
297 294 288 293 293 291 280 257 260 266 258 256 257 257 254 243 230 215 203 198 200 215 194 169 173 169 171 184 207 187 176 178 169 166 174 180 180 172
285 287 287 294 294 291 286 277 275 272 252 251 257 252 244 237 231 216 206 203 205 206 189 170 174 175 165 169 198 191 179 170 163 167 159 135 139 161
281 284 289 292 294 290 282 283 281 260 239 241 250 252 246 236 223 217 211 200 200 209 189 179 169 170 167 177 181 181 182 199 180 172 169 166 172 154
291 292 295 292 285 275 282 282 267 248 240 240 246 255 258 246 224 209 207 198 198 227 209 180 176 169 173 174 174 187 185 184 182 181 171 175 188 181
299 295 293 293 290 284 277 273 268 258 251 244 244 246 254 247 236 215 203 194 200 202 197 185 153 157 162 164 175 190 183 185 185 173 163 183 228 220
300 285 283 280 277 276 276 275 269 261 252 246 242 239 242 241 238 226 206 201 206 204 194 177 155 134 92 358 189 181 179 182 176 164 159 170 223 245
290 280 277 276 275 271 266 265 266 264 258 248 243 240 240 239 233 229 216 211 212 203 193 178 173 172 183 204 246 191 174 169 157 161 174 179 203 227
274 274 277 276 274 271 266 264 264 263 258 251 245 240 237 239 235 228 220 215 213 201 190 185 187 187 192 189 181 193 177 163 164 171 172 158 231 308
280 274 272 275 275 270 264 261 259 259 257 254 249 242 235 235 237 228 222 217 211 202 199 202 200 175 139 122 128 156 186 175 174 170 162 151 170 221
277 276 274 273 276 274 267 264 262 260 255 255 254 244 236 231 235 227 219 214 213 206 203 187 154 147 147 164 169 165 156 113 85 132 159 170 170 189
277 275 273 271 270 273 268 263 261 259 252 249 253 246 235 232 231 227 220 215 205 199 184 168 159 158 164 165 160 156 155 152 132 99 33 13 174 188
Height
1516 1515 1514 1513 1513 1512 1512 1512 1512 1510 1510 1510 1510 1511 1511 1511 1512 1512 1513 1514 1515 1516 1517 1518 1520 1521 1523 1525 1526 1528 1530 1532 1534 1535 1537 1538 1540 1542
1515 1514 1513 1512 1511 1511 1510 1510 1510 1510 1509 1508 1508 1508 1509 1509 1509 1509 1510 1511 1512 1513 1514 1515 1517 1518 1520 1521 1523 1525 1526 1528 1530 1532 1534 1535 1537 1538
1513 1512 1511 1510 1509 1509 1508 1508 1508 1508 1506 1506 1506 1506 1506 1507 1507 1507 1507 1508 1509 1510 1511 1512 1513 1515 1516 1518 1519 1521 1523 1525 1526 1528 1530 1532 1533 1535
1510 1509 1509 1508 1507 1506 1506 1505 1505 1505 1505 1503 1503 1503 1504 1504 1504 1504 1505 1505 1506 1507 1508 1509 1510 1511 1512 1514 1515 1517 1518 1520 1522 1524 1526 1528 1529 1531
1508 1507 1506 1505 1504 1503 1503 1502 1502 1502 1502 1501 1500 1500 1501 1501 1501 1502 1502 1503 1503 1504 1505 1506 1507 1508 1509 1510 1511 1513 1514 1516 1518 1520 1521 1523 1525 1526
1505 1504 1503 1502 1501 1500 1500 1499 1499 1498 1498 1498 1497 1497 1497 1498 1498 1499 1499 1500 1500 1501 1502 1502 1504 1504 1505 1506 1508 1509 1510 1511 1513 1515 1516 1518 1520 1522
1502 1501 1500 1499 1498 1497 1496 1496 1495 1495 1494 1494 1494 1494 1494 1494 1494 1495 1495 1496 1497 1498 1498 1499 1500 1500 1501 1502 1504 1505 1506 1508 1509 1510 1512 1514 1515 1517
1498 1497 1496 1495 1494 1493 1492 1491 1491 1491 1490 1490 1489 1489 1490 1490 1491 1491 1492 1492 1493 1494 1495 1495 1496 1496 1498 1499 1500 1501 1503 1504 1505 1506 1507 1509 1511 1512
1494 1492 1491 1490 1489 1488 1487 1486 1486 1486 1486 1485 1485 1484 1485 1486 1487 1487 1487 1488 1488 1490 1491 1491 1492 1492 1494 1495 1497 1498 1499 1500 1501 1502 1503 1505 1507 1508
1490 1489 1487 1485 1485 1483 1482 1481 1480 1480 1480 1480 1479 1479 1480 1481 1482 1482 1483 1484 1484 1485 1486 1487 1487 1488 1490 1491 1493 1494 1495 1496 1497 1498 1499 1501 1502 1504
1486 1484 1483 1481 1480 1478 1477 1475 1474 1474 1474 1474 1473 1473 1474 1475 1476 1477 1478 1478 1478 1480 1482 1482 1483 1484 1486 1487 1488 1490 1491 1492 1493 1494 1495 1497 1498 1499
1480 1479 1478 1476 1474 1473 1471 1470 1468 1467 1467 1467 1467 1467 1467 1468 1470 1471 1471 1472 1473 1474 1476 1478 1478 1480 1481 1482 1484 1486 1487 1488 1489 1490 1491 1493 1494 1495
1475 1473 1472 1470 1468 1467 1465 1463 1462 1462 1461 1460 1460 1460 1460 1461 1462 1464 1465 1466 1467 1468 1471 1472 1473 1475 1476 1477 1479 1481 1483 1484 1485 1487 1488 1489 1490 1491
1471 1468 1466 1464 1462 1461 1459 1457 1456 1456 1455 1454 1453 1453 1453 1454 1455 1457 1458 1460 1461 1463 1465 1466 1468 1469 1471 1472 1474 1476 1479 1480 1481 1483 1484 1485 1486 1486
1465 1463 1460 1458 1455 1453 1452 1451 1450 1449 1448 1447 1446 1446 1447 1447 1449 1450 1452 1453 1454 1456 1458 1460 1461 1464 1466 1467 1469 1471 1473 1475 1477 1478 1480 1481 1481 1482
1459 1456 1453 1451 1449 1447 1446 1444 1443 1442 1441 1440 1440 1440 1440 1440 1441 1442 1444 1445 1447 1448 1451 1453 1456 1458 1460 1462 1464 1466 1468 1470 1472 1474 1475 1476 1477 1478
1452 1449 1446 1444 1442 1440 1438 1437 1436 1435 1434 1434 1433 1433 1433 1433 1434 1435 1437 1438 1439 1441 1444 1447 1449 1452 1454 1457 1459 1461 1463 1465 1467 1469 1470 1471 1473 1473
1446 1442 1440 1438 1435 1433 1431 1429 1429 1428 1427 1426 1426 1426 1426 1426 1427 1428 1429 1430 1432 1434 1437 1440 1443 1446 1449 1451 1454 1455 1458 1460 1462 1464 1465 1466 1468 1469
1440 1436 1434 1432 1429 1427 1425 1423 1422 1421 1420 1419 1419 1418 1419 1419 1420 1420 1421 1422 1424 1427 1430 1433 1436 1439 1441 1444 1447 1450 1453 1455 1457 1459 1461 1462 1463 1464
1433 1430 1427 1425 1423 1420 1419 1417 1415 1414 1413 1412 1412 1411 1411 1412 1412 1413 1414 1416 1417 1420 1423 1426 1429 1432 1435 1438 1442 1445 1448 1450 1452 1454 1456 1457 1458 1459
1426 1423 1420 1418 1415 1413 1411 1410 1408 1407 1406 1405 1405 1404 1404 1405 1405 1406 1407 1409 1411 1413 1415 1419 1423 1427 1431 1434 1437 1439 1443 1445 1447 1449 1450 1452 1453 1453
1418 1415 1413 1410 1408 1405 1404 1402 1401 1400 1399 1398 1397 1397 1397 1398 1398 1399 1400 1402 1403 1406 1409 1413 1417 1421 1424 1427 1430 1434 1437 1440 1442 1444 1446 1447 1447 1448
1411 1407 1404 1402 1400 1398 1396 1394 1393 1392 1391 1391 1390 1390 1390 1390 1391 1392 1393 1395 1397 1400 1403 1407 1411 1414 1418 1422 1425 1429 1432 1435 1437 1440 1442 1443 1444 1444